| time (UTC) | temp C | wind direction | speed KPH | gust KPH | rain 1hr cm | rain 24hr cm | rain mn cm | humidity % | barometer mb |
| 20260508141506 | 13 | 139 | 0.0 | 0.0 | 0.00 | 0.13 | 0.00 | 48 | 925.6 |
| 20260508141006 | 13 | 139 | 0.0 | 0.0 | 0.00 | 0.13 | 0.00 | 52 | 925.7 |
| 20260508140506 | 13 | 139 | 0.0 | 0.0 | 0.00 | 0.13 | 0.00 | 55 | 925.7 |
| 20260508140006 | 12 | 139 | 0.0 | 0.0 | 0.00 | 0.13 | 0.00 | 54 | 925.8 |
| 20260508134506 | 12 | 139 | 0.0 | 0.0 | 0.00 | 0.13 | 0.00 | 57 | 925.8 |
| 20260508134005 | 11 | 139 | 0.0 | 0.0 | 0.00 | 0.13 | 0.00 | 60 | 925.8 |
| 20260508133006 | 11 | 139 | 0.0 | 0.0 | 0.00 | 0.13 | 0.00 | 60 | 925.7 |
| 20260508131006 | 8 | 139 | 0.0 | 0.0 | 0.00 | 0.13 | 0.00 | 80 | 925.6 |
| 20260508130506 | 7 | 139 | 0.0 | 0.0 | 0.00 | 0.13 | 0.00 | 92 | 925.6 |
| 20260508130005 | 7 | 139 | 0.0 | 0.0 | 0.00 | 0.13 | 0.00 | 96 | 925.6 |
| 20260508124506 | 5 | 139 | 0.0 | 0.0 | 0.00 | 0.13 | 0.00 | 100 | 925.6 |
| 20260508124005 | 5 | 139 | 0.0 | 0.0 | 0.00 | 0.13 | 0.00 | 100 | 925.6 |
| 20260508123006 | 3 | 139 | 0.0 | 0.0 | 0.00 | 0.13 | 0.00 | 100 | 925.5 |
| 20260508121506 | 0 | 139 | 0.0 | 0.0 | 0.00 | 0.13 | 0.00 | 99 | 925.4 |
| 20260508121006 | 0 | 139 | 0.0 | 0.0 | 0.00 | 0.13 | 0.00 | 99 | 925.4 |
| 20260508120506 | 0 | 139 | 0.0 | 0.0 | 0.00 | 0.13 | 0.00 | 99 | 925.4 |
| 20260508120005 | 0 | 139 | 0.0 | 0.0 | 0.00 | 0.13 | 0.00 | 99 | 925.3 |
| 20260508113506 | -1 | 139 | 0.0 | 0.0 | 0.00 | 0.13 | 0.00 | 99 | 925.3 |
| 20260508111506 | -1 | 139 | 0.0 | 0.0 | 0.00 | 0.13 | 0.00 | 99 | 925.1 |
| 20260508111005 | -1 | 139 | 0.0 | 0.0 | 0.00 | 0.15 | 0.00 | 99 | 925.1 |
| 20260508104506 | -1 | 139 | 0.0 | 0.0 | 0.00 | 0.15 | 0.00 | 99 | 924.9 |
| 20260508104006 | -1 | 139 | 0.0 | 0.0 | 0.00 | 0.15 | 0.00 | 99 | 924.8 |
| 20260508103506 | -1 | 139 | 0.0 | 0.0 | 0.00 | 0.15 | 0.00 | 99 | 924.8 |
| 20260508103005 | -1 | 139 | 0.0 | 0.0 | 0.00 | 0.15 | 0.00 | 99 | 924.7 |
| 20260508101005 | -1 | 139 | 0.0 | 0.0 | 0.00 | 0.15 | 0.00 | 99 | 924.7 |
| 20260508100505 | -1 | 139 | 0.0 | 0.0 | 0.00 | 0.20 | 0.00 | 99 | 924.7 |
| 20260508100005 | -1 | 139 | 0.0 | 0.0 | 0.00 | 0.33 | 0.00 | 99 | 924.6 |
| 20260508094505 | -1 | 139 | 0.0 | 0.0 | 0.00 | 0.36 | 0.00 | 99 | 924.5 |
| 20260508094005 | -1 | 139 | 0.0 | 0.0 | 0.00 | 0.36 | 0.00 | 99 | 924.5 |
| 20260508093505 | -1 | 139 | 0.0 | 0.0 | 0.00 | 0.36 | 0.00 | 99 | 924.5 |
| 20260508093005 | 0 | 139 | 0.0 | 0.0 | 0.00 | 0.36 | 0.00 | 99 | 924.5 |
| 20260508091505 | 0 | 139 | 0.0 | 0.0 | 0.00 | 0.36 | 0.00 | 99 | 924.5 |
| 20260508091005 | 0 | 139 | 0.0 | 0.0 | 0.00 | 0.36 | 0.00 | 99 | 924.5 |
| 20260508090505 | 0 | 139 | 0.0 | 0.0 | 0.00 | 0.36 | 0.00 | 99 | 924.4 |
| 20260508090005 | 0 | 139 | 0.0 | 0.0 | 0.00 | 0.36 | 0.00 | 99 | 924.3 |
| 20260508084505 | 0 | 139 | 0.0 | 0.0 | 0.00 | 0.36 | 0.00 | 99 | 924.3 |
| 20260508084005 | 0 | 139 | 0.0 | 0.0 | 0.00 | 0.36 | 0.00 | 99 | 924.4 |
| 20260508083504 | 0 | 139 | 0.0 | 0.0 | 0.00 | 0.36 | 0.00 | 99 | 924.3 |
| 20260508083005 | 0 | 139 | 0.0 | 1.6 | 0.00 | 0.36 | 0.00 | 99 | 924.3 |
| 20260508081505 | 0 | 341 | 0.0 | 1.6 | 0.00 | 0.36 | 0.00 | 99 | 924.3 |
| 20260508081005 | 0 | 337 | 0.0 | 1.6 | 0.00 | 0.36 | 0.00 | 99 | 924.2 |
| 20260508080505 | 0 | 356 | 0.0 | 1.6 | 0.00 | 0.36 | 0.00 | 98 | 924.1 |
| 20260508080005 | 0 | 10 | 0.0 | 1.6 | 0.00 | 0.36 | 0.00 | 98 | 924.1 |
| 20260508074005 | 0 | 48 | 0.0 | 1.6 | 0.00 | 0.36 | 0.00 | 98 | 924.2 |
| 20260508073004 | 0 | 15 | 0.0 | 1.6 | 0.00 | 0.36 | 0.00 | 98 | 924.2 |
| 20260508071007 | 0 | 157 | 0.0 | 1.6 | 0.00 | 0.36 | 0.00 | 98 | 924.0 |
| 20260508070507 | 0 | 37 | 0.0 | 1.6 | 0.00 | 0.36 | 0.00 | 98 | 924.1 |
| 20260508070007 | 0 | 187 | 0.0 | 1.6 | 0.00 | 0.36 | 0.00 | 98 | 924.0 |
| 20260508064506 | 0 | 4 | 1.6 | 1.6 | 0.00 | 0.36 | 0.00 | 98 | 924.0 |
| 20260508064006 | 0 | 36 | 0.0 | 1.6 | 0.00 | 0.36 | 0.00 | 98 | 924.0 |
| 20260508063507 | 0 | 21 | 0.0 | 3.2 | 0.00 | 0.36 | 0.00 | 98 | 924.0 |
| 20260508063006 | 0 | 11 | 0.0 | 1.6 | 0.00 | 0.36 | 0.00 | 98 | 924.0 |
| 20260508061506 | 0 | 313 | 0.0 | 4.8 | 0.00 | 0.36 | 0.00 | 98 | 924.1 |
| 20260508061006 | 1 | 12 | 1.6 | 4.8 | 0.00 | 0.36 | 0.00 | 98 | 924.3 |
| 20260508060508 | 1 | 67 | 0.0 | 1.6 | 0.00 | 0.36 | 0.00 | 98 | 924.3 |
| 20260508060006 | 1 | 355 | 0.0 | 4.8 | 0.00 | 0.36 | 0.00 | 98 | 924.3 |
| 20260508054506 | 1 | 208 | 0.0 | 1.6 | 0.00 | 0.36 | 0.00 | 98 | 924.4 |
| 20260508053506 | 1 | 354 | 0.0 | 3.2 | 0.00 | 0.36 | 0.00 | 98 | 924.5 |
| 20260508053006 | 1 | 283 | 0.0 | 1.6 | 0.00 | 0.36 | 0.00 | 98 | 924.4 |
| 20260508051506 | 1 | 45 | 0.0 | 1.6 | 0.00 | 0.36 | 0.00 | 98 | 924.2 |
| 20260508051006 | 1 | 72 | 0.0 | 1.6 | 0.00 | 0.36 | 0.00 | 98 | 924.2 |
| 20260508050506 | 1 | 19 | 1.6 | 3.2 | 0.00 | 0.38 | 0.00 | 98 | 924.1 |
| 20260508044505 | 2 | 142 | 0.0 | 1.6 | 0.13 | 0.38 | 0.00 | 98 | 923.8 |
| 20260508044005 | 2 | 346 | 0.0 | 1.6 | 0.13 | 0.38 | 0.00 | 97 | 923.8 |
| 20260508043506 | 2 | 12 | 0.0 | 1.6 | 0.13 | 0.41 | 0.00 | 97 | 923.7 |
| 20260508043007 | 2 | 60 | 1.6 | 3.2 | 0.13 | 0.41 | 0.00 | 97 | 923.6 |
| 20260508041006 | 3 | 26 | 0.0 | 1.6 | 0.13 | 0.41 | 0.00 | 97 | 923.7 |
| 20260508040506 | 3 | 77 | 0.0 | 1.6 | 0.13 | 0.41 | 0.00 | 97 | 923.8 |
| 20260508040005 | 3 | 14 | 0.0 | 1.6 | 0.00 | 0.28 | 0.00 | 97 | 923.8 |
| 20260508034505 | 3 | 352 | 0.0 | 1.6 | 0.00 | 0.28 | 0.13 | 97 | 923.7 |
| 20260508034006 | 3 | 12 | 1.6 | 3.2 | 0.00 | 0.28 | 0.13 | 97 | 923.6 |
| 20260508033506 | 3 | 27 | 1.6 | 1.6 | 0.00 | 0.28 | 0.13 | 97 | 923.6 |
| 20260508033005 | 3 | 0 | 1.6 | 3.2 | 0.00 | 0.28 | 0.13 | 97 | 923.6 |
| 20260508031505 | 3 | 56 | 0.0 | 3.2 | 0.00 | 0.28 | 0.13 | 97 | 923.5 |
| 20260508031006 | 3 | 14 | 1.6 | 3.2 | 0.00 | 0.28 | 0.13 | 97 | 923.5 |
| 20260508030506 | 3 | 221 | 1.6 | 3.2 | 0.00 | 0.28 | 0.13 | 96 | 923.6 |
| 20260508030005 | 3 | 58 | 1.6 | 3.2 | 0.00 | 0.38 | 0.13 | 96 | 923.5 |
| 20260508024505 | 3 | 160 | 0.0 | 1.6 | 0.00 | 0.38 | 0.13 | 96 | 923.4 |
| 20260508024006 | 3 | 11 | 0.0 | 1.6 | 0.00 | 0.38 | 0.13 | 96 | 923.3 |
| 20260508023505 | 3 | 32 | 1.6 | 3.2 | 0.00 | 0.38 | 0.13 | 96 | 923.2 |
| 20260508023005 | 4 | 19 | 0.0 | 3.2 | 0.00 | 0.38 | 0.13 | 96 | 923.1 |
| 20260508021505 | 4 | 17 | 0.0 | 3.2 | 0.00 | 0.41 | 0.13 | 96 | 923.0 |
| 20260508021005 | 4 | 2 | 0.0 | 3.2 | 0.00 | 0.43 | 0.13 | 95 | 922.9 |
| 20260508020505 | 5 | 29 | 1.6 | 3.2 | 0.00 | 0.43 | 0.13 | 95 | 922.9 |
| 20260508014505 | 5 | 2 | 0.0 | 3.2 | 0.00 | 0.74 | 0.13 | 95 | 922.6 |
| 20260508014005 | 5 | 39 | 1.6 | 4.8 | 0.00 | 0.74 | 0.13 | 95 | 922.6 |
| 20260508013505 | 5 | 17 | 1.6 | 3.2 | 0.00 | 0.74 | 0.13 | 94 | 922.5 |
| 20260508013005 | 5 | 359 | 0.0 | 3.2 | 0.00 | 0.89 | 0.13 | 94 | 922.5 |
| 20260508011505 | 6 | 46 | 0.0 | 1.6 | 0.00 | 0.91 | 0.13 | 93 | 922.2 |
| 20260508010005 | 6 | 101 | 0.0 | 3.2 | 0.00 | 0.94 | 0.13 | 92 | 922.1 |
| 20260508004505 | 7 | 103 | 1.6 | 3.2 | 0.00 | 0.94 | 0.13 | 91 | 922.0 |
| 20260508003005 | 7 | 26 | 0.0 | 3.2 | 0.00 | 1.30 | 0.13 | 88 | 921.8 |
| 20260508001004 | 9 | 67 | 1.6 | 4.8 | 0.00 | 1.30 | 0.13 | 84 | 921.8 |
| 20260508000505 | 9 | 349 | 3.2 | 4.8 | 0.00 | 1.75 | 0.13 | 83 | 921.8 |
| 20260508000005 | 10 | 11 | 3.2 | 8.0 | 0.00 | 1.75 | 0.13 | 81 | 921.8 |
| 20260507234505 | 10 | 287 | 3.2 | 8.0 | 0.00 | 1.78 | 0.13 | 77 | 921.7 |
| 20260507234004 | 10 | 11 | 1.6 | 4.8 | 0.00 | 1.78 | 0.13 | 80 | 921.7 |
| 20260507233505 | 10 | 15 | 3.2 | 4.8 | 0.00 | 1.78 | 0.13 | 80 | 921.7 |
| 20260507233005 | 10 | 19 | 1.6 | 4.8 | 0.00 | 1.78 | 0.13 | 80 | 921.7 |
| 20260507231505 | 11 | 32 | 1.6 | 3.2 | 0.00 | 1.78 | 0.13 | 79 | 921.6 |
| 20260507231004 | 11 | 215 | 0.0 | 3.2 | 0.00 | 1.78 | 0.13 | 78 | 921.5 |
| 20260507230005 | 11 | 13 | 0.0 | 8.0 | 0.00 | 1.78 | 0.13 | 75 | 921.5 |
| 20260507224005 | 12 | 322 | 1.6 | 8.0 | 0.00 | 1.78 | 0.13 | 73 | 921.4 |
| 20260507221506 | 11 | 225 | 3.2 | 9.7 | 0.00 | 1.78 | 0.13 | 72 | 921.2 |
| 20260507221007 | 11 | 204 | 3.2 | 8.0 | 0.00 | 1.78 | 0.13 | 73 | 921.2 |
| 20260507220506 | 12 | 207 | 1.6 | 8.0 | 0.00 | 1.78 | 0.13 | 72 | 921.1 |
| 20260507220006 | 12 | 198 | 1.6 | 8.0 | 0.00 | 1.78 | 0.13 | 71 | 921.2 |
| 20260507214006 | 12 | 355 | 3.2 | 8.0 | 0.00 | 1.78 | 0.13 | 72 | 921.1 |
| 20260507213006 | 12 | 110 | 1.6 | 16.1 | 0.00 | 1.80 | 0.13 | 70 | 921.1 |
| 20260507211506 | 12 | 306 | 6.4 | 14.5 | 0.00 | 1.83 | 0.13 | 71 | 920.9 |
| 20260507211006 | 12 | 287 | 4.8 | 14.5 | 0.00 | 1.83 | 0.13 | 69 | 921.0 |
| 20260507210506 | 12 | 318 | 3.2 | 8.0 | 0.00 | 1.83 | 0.13 | 73 | 920.9 |
| 20260507210006 | 11 | 257 | 3.2 | 11.3 | 0.00 | 1.83 | 0.13 | 75 | 920.9 |
| 20260507204505 | 12 | 293 | 4.8 | 12.9 | 0.00 | 1.83 | 0.13 | 72 | 920.9 |
| 20260507204006 | 12 | 225 | 8.0 | 14.5 | 0.00 | 1.83 | 0.13 | 71 | 920.8 |
| 20260507203506 | 12 | 269 | 4.8 | 11.3 | 0.00 | 1.83 | 0.13 | 74 | 920.7 |
| 20260507203006 | 11 | 284 | 4.8 | 9.7 | 0.00 | 1.83 | 0.13 | 76 | 920.8 |
| 20260507201505 | 10 | 230 | 3.2 | 8.0 | 0.00 | 1.83 | 0.13 | 79 | 921.1 |
| 20260507201006 | 10 | 243 | 3.2 | 12.9 | 0.00 | 1.83 | 0.13 | 78 | 921.2 |
| 20260507200506 | 10 | 282 | 4.8 | 11.3 | 0.00 | 1.83 | 0.13 | 78 | 921.2 |
| 20260507194506 | 10 | 268 | 4.8 | 11.3 | 0.00 | 1.83 | 0.13 | 79 | 921.2 |
| 20260507194006 | 10 | 356 | 4.8 | 9.7 | 0.00 | 1.83 | 0.13 | 78 | 921.2 |
| 20260507193505 | 10 | 274 | 8.0 | 16.1 | 0.00 | 1.83 | 0.13 | 77 | 921.2 |
| 20260507193006 | 10 | 124 | 1.6 | 11.3 | 0.00 | 1.83 | 0.13 | 78 | 921.2 |
| 20260507191506 | 10 | 344 | 4.8 | 12.9 | 0.00 | 1.83 | 0.13 | 78 | 921.4 |
| 20260507191006 | 11 | 281 | 6.4 | 14.5 | 0.00 | 1.83 | 0.13 | 80 | 921.3 |
| 20260507190006 | 10 | 339 | 4.8 | 9.7 | 0.00 | 1.83 | 0.13 | 81 | 921.5 |
| 20260507184005 | 10 | 256 | 3.2 | 9.7 | 0.00 | 1.83 | 0.13 | 79 | 921.8 |
| 20260507183506 | 10 | 275 | 1.6 | 8.0 | 0.00 | 1.83 | 0.13 | 80 | 921.8 |
| 20260507183006 | 10 | 259 | 3.2 | 9.7 | 0.00 | 1.83 | 0.13 | 81 | 921.8 |
| 20260507181006 | 10 | 184 | 3.2 | 8.0 | 0.00 | 1.83 | 0.13 | 81 | 921.5 |
| 20260507180007 | 10 | 340 | 3.2 | 9.7 | 0.00 | 1.83 | 0.13 | 80 | 921.5 |
| 20260507174505 | 10 | 276 | 3.2 | 8.0 | 0.00 | 1.83 | 0.13 | 82 | 921.6 |
| 20260507174006 | 10 | 145 | 4.8 | 11.3 | 0.00 | 1.83 | 0.13 | 79 | 921.6 |
| 20260507173506 | 10 | 167 | 1.6 | 8.0 | 0.00 | 1.83 | 0.13 | 79 | 921.7 |
| 20260507173005 | 10 | 326 | 3.2 | 11.3 | 0.00 | 1.83 | 0.13 | 80 | 921.8 |
| 20260507171505 | 10 | 76 | 1.6 | 3.2 | 0.00 | 1.83 | 0.13 | 79 | 921.6 |
| 20260507171005 | 10 | 265 | 3.2 | 8.0 | 0.00 | 1.83 | 0.13 | 82 | 921.6 |
| 20260507170505 | 10 | 315 | 3.2 | 8.0 | 0.00 | 1.83 | 0.13 | 82 | 921.8 |
| 20260507170005 | 10 | 231 | 3.2 | 14.5 | 0.00 | 1.83 | 0.13 | 80 | 921.7 |
| 20260507164505 | 10 | 19 | 4.8 | 8.0 | 0.00 | 1.83 | 0.13 | 80 | 921.6 |
| 20260507164006 | 10 | 305 | 3.2 | 8.0 | 0.00 | 1.85 | 0.13 | 80 | 921.6 |
| 20260507163505 | 10 | 108 | 3.2 | 4.8 | 0.00 | 1.85 | 0.13 | 79 | 921.7 |
| 20260507161505 | 10 | 60 | 3.2 | 9.7 | 0.00 | 1.91 | 0.13 | 80 | 921.8 |
| 20260507161005 | 10 | 228 | 1.6 | 8.0 | 0.00 | 1.91 | 0.13 | 81 | 921.8 |
| 20260507160005 | 10 | 39 | 1.6 | 9.7 | 0.00 | 1.91 | 0.13 | 80 | 921.8 |
| 20260507154505 | 8 | 166 | 1.6 | 9.7 | 0.00 | 2.08 | 0.13 | 85 | 921.8 |
| 20260507154008 | 9 | 155 | 8.0 | 12.9 | 0.00 | 2.13 | 0.13 | 81 | 921.9 |
| 20260507153505 | 9 | 124 | 4.8 | 9.7 | 0.00 | 2.13 | 0.13 | 84 | 921.8 |
| 20260507153005 | 9 | 97 | 1.6 | 8.0 | 0.00 | 2.57 | 0.13 | 85 | 921.8 |
| 20260507150505 | 7 | 339 | 1.6 | 3.2 | 0.00 | 2.57 | 0.13 | 91 | 921.9 |
| 20260507150006 | 7 | 339 | 1.6 | 4.8 | 0.00 | 2.57 | 0.13 | 91 | 922.1 |
| 20260507144504 | 7 | 142 | 3.2 | 8.0 | 0.00 | 2.62 | 0.13 | 93 | 922.1 |
| 20260507144005 | 7 | 149 | 3.2 | 4.8 | 0.00 | 2.62 | 0.13 | 94 | 922.0 |
| 20260507143505 | 7 | 138 | 1.6 | 3.2 | 0.00 | 2.62 | 0.13 | 97 | 922.0 |
| 20260507143005 | 7 | 161 | 1.6 | 3.2 | 0.00 | 2.67 | 0.13 | 97 | 922.0 |